TimeCDT,TemperatureF,Dew PointF,Humidity,Sea Level PressureIn,VisibilityMPH,Wind Direction,Wind SpeedMPH,Gust SpeedMPH,PrecipitationIn,Events,Conditions,WindDirDegrees,DateUTC
12:55 AM,28.4,24.8,86,29.96,9.0,NW,23.0,28.8,N/A,,Overcast,310,2013-03-16 05:55:00
1:35 AM,28.4,23.0,80,29.97,10.0,NW,17.3,24.2,N/A,,Overcast,310,2013-03-16 06:35:00
1:55 AM,28.4,21.2,74,29.99,10.0,WNW,19.6,28.8,N/A,,Overcast,300,2013-03-16 06:55:00
2:15 AM,26.6,23.0,86,30.01,10.0,WNW,17.3,-,N/A,,Overcast,300,2013-03-16 07:15:00
2:35 AM,26.6,21.2,80,30.01,10.0,NW,19.6,26.5,N/A,,Overcast,310,2013-03-16 07:35:00
2:55 AM,24.8,19.4,80,30.02,10.0,NW,24.2,33.4,N/A,,Overcast,320,2013-03-16 07:55:00
3:15 AM,24.8,21.2,86,30.03,10.0,NW,20.7,27.6,N/A,,Overcast,320,2013-03-16 08:15:00
3:35 AM,24.8,19.4,80,30.04,10.0,NW,25.3,31.1,N/A,,Overcast,320,2013-03-16 08:35:00
3:55 AM,23.0,19.4,86,30.05,10.0,NW,25.3,32.2,N/A,,Overcast,320,2013-03-16 08:55:00
4:15 AM,23.0,19.4,86,30.06,10.0,NNW,21.9,27.6,N/A,,Overcast,330,2013-03-16 09:15:00
4:35 AM,21.2,17.6,86,30.07,10.0,NNW,23.0,31.1,N/A,,Overcast,330,2013-03-16 09:35:00
4:55 AM,21.2,17.6,86,30.08,10.0,NW,20.7,27.6,N/A,,Overcast,320,2013-03-16 09:55:00
5:15 AM,21.2,17.6,86,30.08,10.0,NW,18.4,26.5,N/A,,Overcast,320,2013-03-16 10:15:00
5:35 AM,21.2,15.8,80,30.10,10.0,NW,21.9,25.3,N/A,,Overcast,320,2013-03-16 10:35:00
5:55 AM,21.2,17.6,86,30.11,10.0,NW,18.4,26.5,N/A,,Overcast,320,2013-03-16 10:55:00
6:15 AM,19.4,15.8,86,30.13,10.0,NW,21.9,28.8,N/A,,Overcast,320,2013-03-16 11:15:00
6:35 AM,19.4,15.8,86,30.13,10.0,NNW,18.4,25.3,N/A,,Overcast,330,2013-03-16 11:35:00
7:15 AM,19.4,15.8,86,30.15,10.0,NNW,21.9,28.8,N/A,,Overcast,330,2013-03-16 12:15:00
7:35 AM,19.4,15.8,86,30.15,10.0,NNW,20.7,24.2,N/A,,Overcast,330,2013-03-16 12:35:00
7:55 AM,19.4,15.8,86,30.16,10.0,NNW,19.6,24.2,N/A,,Overcast,330,2013-03-16 12:55:00
8:15 AM,19.4,15.8,86,30.16,10.0,NNW,18.4,24.2,N/A,,Overcast,330,2013-03-16 13:15:00
8:35 AM,19.4,15.8,86,30.17,10.0,NW,19.6,-,N/A,,Overcast,320,2013-03-16 13:35:00
8:55 AM,19.4,15.8,86,30.17,10.0,NNW,15.0,-,N/A,,Overcast,330,2013-03-16 13:55:00
9:15 AM,19.4,14.0,80,30.18,10.0,NNW,15.0,19.6,N/A,,Overcast,330,2013-03-16 14:15:00
9:35 AM,19.4,12.2,74,30.17,10.0,NW,15.0,-,N/A,,Overcast,320,2013-03-16 14:35:00
9:55 AM,19.4,12.2,74,30.17,10.0,NNW,16.1,-,N/A,,Overcast,330,2013-03-16 14:55:00
10:15 AM,19.4,12.2,74,30.18,10.0,North,12.7,-,N/A,,Overcast,350,2013-03-16 15:15:00
10:35 AM,19.4,12.2,74,30.18,10.0,NW,12.7,-,N/A,,Overcast,320,2013-03-16 15:35:00
10:55 AM,19.4,12.2,74,30.18,10.0,North,11.5,19.6,N/A,,Overcast,360,2013-03-16 15:55:00
11:15 AM,21.2,12.2,68,30.18,10.0,North,9.2,17.3,N/A,,Overcast,360,2013-03-16 16:15:00
11:35 AM,21.2,12.2,68,30.18,10.0,NW,13.8,17.3,N/A,,Mostly Cloudy,320,2013-03-16 16:35:00
11:55 AM,21.2,12.2,68,30.19,10.0,NNW,12.7,18.4,N/A,,Partly Cloudy,330,2013-03-16 16:55:00
12:15 PM,24.8,14.0,64,30.19,10.0,NNW,13.8,17.3,N/A,,Scattered Clouds,330,2013-03-16 17:15:00
12:35 PM,24.8,14.0,64,30.18,10.0,North,10.4,17.3,N/A,,Partly Cloudy,350,2013-03-16 17:35:00
12:55 PM,24.8,14.0,64,30.18,10.0,NNW,11.5,-,N/A,,Partly Cloudy,340,2013-03-16 17:55:00
1:15 PM,26.6,14.0,59,30.18,10.0,NNW,11.5,17.3,N/A,,Partly Cloudy,330,2013-03-16 18:15:00
1:35 PM,26.6,15.8,64,30.16,10.0,NNW,12.7,-,N/A,,Partly Cloudy,330,2013-03-16 18:35:00
1:55 PM,28.4,15.8,59,30.16,10.0,NNW,9.2,17.3,N/A,,Partly Cloudy,340,2013-03-16 18:55:00
2:15 PM,28.4,15.8,59,30.15,10.0,NNW,10.4,-,N/A,,Partly Cloudy,330,2013-03-16 19:15:00
2:35 PM,28.4,17.6,64,30.13,10.0,North,8.1,16.1,N/A,,Partly Cloudy,10,2013-03-16 19:35:00
2:55 PM,28.4,17.6,64,30.13,10.0,NNW,10.4,18.4,N/A,,Clear,340,2013-03-16 19:55:00
3:15 PM,30.2,15.8,55,30.13,10.0,NNW,8.1,16.1,N/A,,Clear,330,2013-03-16 20:15:00
3:35 PM,30.2,17.6,60,30.12,10.0,NNW,5.8,19.6,N/A,,Partly Cloudy,340,2013-03-16 20:35:00
3:55 PM,30.2,17.6,60,30.12,10.0,NNW,11.5,-,N/A,,Partly Cloudy,330,2013-03-16 20:55:00
4:15 PM,30.2,17.6,60,30.13,10.0,NNW,13.8,-,N/A,,Partly Cloudy,340,2013-03-16 21:15:00
4:35 PM,30.2,17.6,60,30.14,10.0,NW,10.4,-,N/A,,Mostly Cloudy,320,2013-03-16 21:35:00
4:55 PM,30.2,17.6,60,30.13,10.0,NW,6.9,-,N/A,,Mostly Cloudy,320,2013-03-16 21:55:00
5:15 PM,30.2,17.6,60,30.12,10.0,NNW,6.9,-,N/A,,Scattered Clouds,330,2013-03-16 22:15:00
5:35 PM,30.2,17.6,60,30.12,10.0,North,11.5,-,N/A,,Partly Cloudy,360,2013-03-16 22:35:00
5:55 PM,28.4,17.6,64,30.11,10.0,North,10.4,-,N/A,,Partly Cloudy,350,2013-03-16 22:55:00
6:15 PM,28.4,19.4,69,30.11,10.0,North,10.4,-,N/A,,Partly Cloudy,350,2013-03-16 23:15:00
6:35 PM,28.4,19.4,69,30.12,10.0,North,9.2,-,N/A,,Clear,350,2013-03-16 23:35:00
6:55 PM,28.4,19.4,69,30.13,10.0,NNW,10.4,-,N/A,,Clear,340,2013-03-16 23:55:00
7:15 PM,28.4,19.4,69,30.15,10.0,NNW,9.2,-,N/A,,Clear,330,2013-03-17 00:15:00
7:35 PM,28.4,19.4,69,30.16,10.0,NW,10.4,-,N/A,,Scattered Clouds,320,2013-03-17 00:35:00
7:55 PM,28.4,19.4,69,30.17,10.0,NW,10.4,-,N/A,,Mostly Cloudy,320,2013-03-17 00:55:00
8:15 PM,28.4,19.4,69,30.17,10.0,NW,9.2,-,N/A,,Mostly Cloudy,320,2013-03-17 01:15:00
8:35 PM,28.4,19.4,69,30.17,10.0,NNW,10.4,-,N/A,,Overcast,340,2013-03-17 01:35:00
8:55 PM,28.4,19.4,69,30.18,10.0,North,6.9,-,N/A,,Overcast,350,2013-03-17 01:55:00
9:15 PM,28.4,17.6,64,30.19,10.0,NNE,10.4,-,N/A,,Overcast,30,2013-03-17 02:15:00
9:35 PM,26.6,17.6,69,30.19,10.0,NNE,9.2,-,N/A,,Overcast,30,2013-03-17 02:35:00
9:55 PM,26.6,17.6,69,30.19,10.0,NNE,9.2,-,N/A,,Mostly Cloudy,30,2013-03-17 02:55:00
10:15 PM,26.6,17.6,69,30.18,10.0,NNE,9.2,-,N/A,,Partly Cloudy,30,2013-03-17 03:15:00
10:35 PM,26.6,17.6,69,30.19,10.0,NNE,8.1,-,N/A,,Clear,30,2013-03-17 03:35:00
10:55 PM,26.6,17.6,69,30.18,10.0,NE,9.2,-,N/A,,Clear,50,2013-03-17 03:55:00
11:15 PM,24.8,17.6,74,30.19,10.0,NE,9.2,-,N/A,,Mostly Cloudy,40,2013-03-17 04:15:00
11:35 PM,24.8,17.6,74,30.19,10.0,NE,9.2,-,N/A,,Overcast,40,2013-03-17 04:35:00
11:55 PM,24.8,17.6,74,30.19,10.0,NE,10.4,-,N/A,,Mostly Cloudy,40,2013-03-17 04:55:00